Other Surface Observations
Issued by NWS

Home | Current Version | Previous Version | Text Only | Print | Product List | Glossary On
Versions: 1 2 3 4 5 6 7 8 9 10 11 12 13 14 15 16 17 18 19 20 21 22 23 24 25 26 27 28 29 30 31 32 33 34 35 36 37 38 39 40 41 42 43 44 45 46 47 48 49 50
862
SXUS52 KTAE 091705
OSOTAE
OSOTAE
North Florida/South Alabama/Southwest Georgia Weather Roundup
National Weather Service Tallahassee Florida
1200 PM EST TUE FEB 09 2016

Note: "fair" indicates few or no clouds below 12,000 feet with no
significant weather and/or obstructions to visibility.

!FLZ017-115-028-034-025-091800
...North Florida...

CITY           SKY/WX    TMP DP  RH WIND       PRES   REMARKS
TALLAHASSEE    MOSUNNY   53  17  24 W20G33    29.99F
APALACHICOLA   MOSUNNY   55  29  36 W23G32    30.02F
PERRY          SUNNY     53  18  24 W23G30    30.01F
CROSS CITY       N/A     54  24  31 W16G28    30.02F
JACKSONVILLE   MOSUNNY   50  21  32 W26G44    29.95F WCI  43
$$

!FLZ112-006-005-002-011-091800
...Florida Panhandle...

CITY           SKY/WX    TMP DP  RH WIND       PRES   REMARKS
MARIANNA       SUNNY     49  20  31 W18G26    29.99F WCI  42
BONIFAY        FAIR      49  22  34 W12G17    30.01F WCI  44
PANAMA CITY NW FAIR      51  20  29 W21G28    30.01F
TYNDALL AFB    SUNNY     52  27  38 W25       30.03F
TYND DRONE APT FAIR      51  30  43 MISG      30.03F
DE FUNIAK SPR  FAIR      46  19  34 NW17G24   30.02F WCI  39
EGLIN AFB      MOSUNNY   48  15  26 NW25G33   30.03F WCI  41
DESTIN         SUNNY     50  19  29 W12G22    30.05S
HURLBURT       SUNNY     48  13  24 NW16G24   30.04F WCI  42
CRESTVIEW      SUNNY     47  16  29 NW20G25   30.05F WCI  40
PENSACOLA      SUNNY     49  15  25 NW22G30   30.07F WCI  42
$$

!ALZ063-066-091800
...South Alabama...

CITY           SKY/WX    TMP DP  RH WIND       PRES   REMARKS
DOTHAN         NOT AVBL
OZARK CAIRNS   SUNNY     45  19  35 W18G24    29.98F WCI  38
FT RUCKER HELI SUNNY     46  17  31 W15G32    29.98F WCI  40
RUCKER HELI 3  FAIR      43  18  35 W15G30    29.99F WCI  36
RUCKER HELI 2  NOT AVBL
FLORALA APT    SUNNY     45  17  32 VRB7G18   30.03F WCI  41
ANDALUSIA      NOT AVBL
TROY           SUNNY     45  18  34 W16G25    29.99F WCI  38
EUFALA         FAIR      46  20  35 W13G21    29.93F WCI  40
MOBILE         SUNNY     46  17  31 W14G23    30.10F WCI  40
$$

!GAZ120>161-091800
...Southwest and South Central Georgia...

CITY           SKY/WX    TMP DP  RH WIND       PRES   REMARKS
THOMASVILLE    FAIR      46  21  36 W12G25    29.98F WCI  41
BAINBRIDGE     SUNNY     50  23  34 W22G28    29.99F WCI  43
MOODY AFB      SUNNY     49  20  32 W16G28    29.94F WCI  43
VALDOSTA       SUNNY     50  20  30 MISG      29.97F
MOULTRIE       MOSUNNY   45  23  42 W16G29    29.98F WCI  37
BLAKELY        PTSUNNY   50  27  40 W13G28    29.98F
ALBANY         MOSUNNY   45  18  34 W17G30    29.97F WCI  38
TIFTON         NOT AVBL
FITZGERALD     FAIR      46  20  36 W16G24    29.94F WCI  39
CORDELE        CLOUDY    46  22  38 W17G28    29.94F WCI  39
AMERICUS       CLOUDY    41  21  45 W14       29.94F WCI  33
HOMERVILLE     FAIR      48  28  46 W23G31    29.95F WCI  41
$$

!GMZ750-755-770-775-091800
...Coastal and Buoy Obs...

STATION/POSITION TIME  TEMP    WIND        PRES    VSBY  WAVE
                       AIR SEA DIR/SP/G                  HT/PER
                 (UTC) (F)     (DEG/KT/KT) (MB)    (MI)  (FT/S)
KEATON BEACH     NOT AVBL
CEDAR KEY        1600   50     320/ 14/ 20 1018.5R
C TOWER          NOT AVBL
APALACHICOLA BUO 1650   59 67  280/ 25/ 31 1017.3F        11/ 9
PANAMA CITY BUOY 1550   57 70  290/ 25/ 33 1018.6         10/ 9
MOBILE BUOY      NOT AVBL
ORANGE BCH AL BU 1650   47 63  290/ 21/ 27 1018.6F         5/ 5
$$




USA.gov is the U.S. government's official web portal to all federal, state and local government web resources and services.